Weather in Torrey Pines Park

United States     32°53′25″N   117°15′03″W
temp.,
°C
wind,
m/s
gust,
m/s
humid.,
%
clouds,
%
prec.,
mm/h
press.,
hPa
HPBL,
m
18 september, sat
sat1823:00+19wnw327723 0.0 1017321
02:00+18nw328362 0.0 1016335
05:00+18nw338451 0.0 1016378
08:00+18nw228482 0.1 1018406
11:00+20w42717 0.1 1018454
14:00+20w436920 0.0 1017474
17:00+20wnw43680 0.0 1016425
20:00+18nw33750 0.0 1016375
19 september, sun
sun1923:00+18nnw33780 0.0 1016326
02:00+17nnw22800 0.0 1015269
05:00+17nw22810 0.0 1014206
08:00+18nw11780 0.0 1015293
11:00+21wsw21640 0.0 1014381
14:00+22wsw43592 0.0 1012385
17:00+21wsw32620 0.0 1011338
20:00+19wsw10720 0.0 1012164
20 september, mon
mon2023:00+19sw11730 0.0 1012124
02:00+19s22760 0.0 1011142
05:00+19sse22770 0.0 1011129
08:00+20sse23720 0.0 1012215
11:00+23ssw43600 0.0 1012425
14:00+23sw55637 0.0 1012505
17:00+23ssw44667 0.0 1012472
20:00+21ssw22765 0.0 1013294
21 september, tue
tue2123:00+20sw22800 0.0 1014180
02:00+19sw11840 0.0 1014128
05:00+19wsw11850 0.0 101582
08:00+20ssw11810 0.0 1017148
11:00+23wsw32662 0.0 1017309
14:00+23w43675 0.0 1017325
17:00+23w32680 0.0 1016248
20:00+22nw22730 0.0 101794
22 september, wed
wed2223:00+21nw22740 0.0 101759
02:00+20nw23790 0.0 101793
05:00+20nw22780 0.0 101758
08:00+21nw22750 0.0 1017102
11:00+24wnw44640 0.0 1017264
14:00+24wnw56630 0.0 1015288
17:00+24wnw33600 0.0 1014255
20:00+22nnw33660 0.0 1014129